Weather History for Topeka Forbes, KS

Change the Weather History Date:

Saturday, March 9, 2013

  Actual Average Record
Temperature  
Mean Temperature 52 °F -  
Max Temperature 55 °F 55 °F 80 °F (1986)
Min Temperature 48 °F 30 °F 10 °F (1998)
Degree Days  
Heating Degree Days 14    
Growing Degree Days 2 (Base 50)    
Moisture  
Dew Point 48 °F    
Average Humidity 89    
Maximum Humidity 100    
Minimum Humidity 54    
Precipitation  
Precipitation 1.38 in - - ()
Sea Level Pressure  
Sea Level Pressure 29.72 in    
Wind  
Wind Speed 11 mph (SE)    
Max Wind Speed 21 mph    
Max Gust Speed 31 mph    
Visibility 4 miles    
Events Rain , Thunderstorm    
Averages and records for this station are not official NWS values.
T = Trace of Precipitation, MM = Missing Value Source: NWS Daily Summary

Daily Weather History Graph

Daily Weather History Graph

Search for Another Location

Airport:

Trip Planner

Search our weather history database for the weather conditions in past years. The results will help you decide how hot, cold, wet, or windy it might be!

Date:

Astronomy

Mar. 09, 2013 Rise Set
Actual Time 6:42 AM CST 6:23 PM CST
Civil Twilight 6:16 AM CST 6:50 PM CST
Nautical Twilight 5:45 AM CST 7:21 PM CST
Astronomical Twilight 5:14 AM CST 7:52 PM CST
Moon 5:06 AM CST (3/9) 4:27 PM CST (3/9)
Length of Visible Light 12h 34m
Length of Day
11h 41m
Waning Crescent, 5% of the Moon is Illuminated
Mar 9
Waning Crescent
Mar 11
New
Mar 19
First Quarter
Mar 27
Full
Apr 2
Last Quarter

Hourly Weather History & Observations

Time (CST) Temp. Dew Point Humidity Pressure Visibility Wind Dir Wind Speed Gust Speed Precip Events Conditions
12:04 AM 55.4 °F 41.0 °F 58% 29.92 in 10.0 mi SSE 17.3 mph 26.5 mph N/A   Overcast
12:53 AM 54.0 °F 39.9 °F 59% 29.91 in 9.0 mi SSE 16.1 mph 23.0 mph N/A   Overcast
1:53 AM 55.9 °F 41.0 °F 57% 29.89 in 9.0 mi South 19.6 mph 31.1 mph N/A   Overcast
2:19 AM 55.4 °F 39.2 °F 54% 29.89 in 8.0 mi South 20.7 mph 28.8 mph N/A   Overcast
2:53 AM 55.0 °F 39.9 °F 57% 29.88 in 8.0 mi South 12.7 mph - N/A   Overcast
3:53 AM 54.0 °F 39.9 °F 59% 29.83 in 9.0 mi SSE 11.5 mph 21.9 mph N/A   Overcast
4:53 AM 53.1 °F 39.9 °F 61% 29.80 in 10.0 mi SSE 13.8 mph - N/A   Mostly Cloudy
5:48 AM 53.6 °F 39.2 °F 58% 29.80 in 10.0 mi South 18.4 mph 26.5 mph 0.00 in   Overcast
5:53 AM 54.0 °F 39.9 °F 59% 29.79 in 10.0 mi South 19.6 mph 26.5 mph 0.00 in   Mostly Cloudy
6:53 AM 53.1 °F 42.1 °F 66% 29.80 in 9.0 mi South 12.7 mph 20.7 mph 0.01 in Rain Light Rain
7:53 AM 48.9 °F 45.0 °F 86% 29.79 in 6.0 mi SSE 6.9 mph - 0.05 in Rain Light Rain
8:29 AM 48.2 °F 44.6 °F 87% 29.81 in 4.0 mi WSW 6.9 mph - 0.03 in Rain Light Rain
8:53 AM 48.0 °F 46.0 °F 93% 29.80 in 2.5 mi Calm Calm - 0.08 in Rain Rain
8:59 AM 48.2 °F 46.4 °F 93% 29.78 in 1.8 mi East 5.8 mph - 0.03 in Rain Heavy Rain
9:22 AM 48.2 °F 46.4 °F 93% 29.80 in 1.2 mi NNW 4.6 mph - 0.14 in Rain Rain
9:32 AM 48.2 °F 46.4 °F 93% 29.79 in 3.0 mi North 3.5 mph - 0.15 in Rain Light Rain
9:44 AM 48.2 °F 46.4 °F 93% 29.79 in 4.0 mi NNE 3.5 mph - 0.16 in Rain Light Rain
9:53 AM 48.0 °F 46.9 °F 96% 29.78 in 3.0 mi Calm Calm - 0.17 in Rain Light Rain
10:00 AM 48.2 °F 46.4 °F 93% 29.78 in 2.0 mi East 3.5 mph - 0.02 in Rain Rain
10:07 AM 48.2 °F 46.4 °F 93% 29.77 in 1.5 mi East 3.5 mph - 0.05 in Rain Rain
10:20 AM 48.2 °F 46.4 °F 93% 29.76 in 2.5 mi East 5.8 mph - 0.06 in Rain Light Rain
10:32 AM 48.2 °F 46.4 °F 93% 29.77 in 4.0 mi SE 4.6 mph - 0.06 in   Overcast
10:53 AM 48.9 °F 46.9 °F 93% 29.75 in 5.0 mi SE 8.1 mph - 0.06 in Rain Light Rain
11:08 AM 48.2 °F 46.4 °F 93% 29.75 in 2.0 mi SSE 6.9 mph - 0.04 in Rain Light Rain
11:14 AM 50.0 °F 46.4 °F 87% 29.75 in 3.0 mi SSE 6.9 mph - 0.05 in Rain Light Rain
11:34 AM 48.2 °F 46.4 °F 93% 29.74 in 1.8 mi SE 8.1 mph - 0.11 in Rain Rain
11:39 AM 48.2 °F 46.4 °F 93% 29.73 in 2.0 mi SSE 10.4 mph - 0.13 in Rain Rain
11:53 AM 50.0 °F 48.0 °F 93% 29.74 in 2.5 mi SSE 11.5 mph 20.7 mph 0.17 in Rain Rain
12:36 PM 51.8 °F 48.2 °F 88% 29.73 in 2.0 mi South 8.1 mph - 0.16 in Rain Heavy Rain
12:44 PM 51.8 °F 48.2 °F 88% 29.71 in 2.5 mi SSE 9.2 mph - 0.18 in Rain , Thunderstorm Light Thunderstorms and Rain
12:51 PM 50.0 °F 48.2 °F 94% 29.70 in 3.0 mi SSE 9.2 mph - 0.19 in Rain , Thunderstorm Light Thunderstorms and Rain
12:53 PM 51.1 °F 48.9 °F 92% 29.70 in 3.0 mi SSE 9.2 mph - 0.20 in Rain , Thunderstorm Light Thunderstorms and Rain
1:02 PM 51.8 °F 48.2 °F 88% 29.70 in 2.0 mi SSE 10.4 mph - 0.03 in Rain , Thunderstorm Thunderstorms and Rain
1:17 PM 51.8 °F 48.2 °F 88% 29.70 in 4.0 mi SSE 12.7 mph - 0.08 in Rain Light Rain
1:53 PM 53.1 °F 51.1 °F 93% 29.68 in 5.0 mi South 10.4 mph - 0.12 in Rain Light Rain
2:34 PM 53.6 °F 51.8 °F 94% 29.67 in 5.0 mi SSE 9.2 mph - 0.03 in Rain Light Rain
2:53 PM 53.1 °F 51.1 °F 93% 29.68 in 5.0 mi SSE 4.6 mph - 0.05 in Rain Light Rain
3:11 PM 53.6 °F 51.8 °F 94% 29.68 in 1.8 mi Calm Calm - 0.01 in Rain Light Rain
3:49 PM 51.8 °F 51.8 °F 100% 29.67 in 0.8 mi SSE 3.5 mph - 0.14 in Rain Heavy Rain
3:53 PM 52.0 °F 51.1 °F 97% 29.67 in 0.8 mi SE 5.8 mph - 0.17 in Rain Heavy Rain
3:58 PM 51.8 °F 51.8 °F 100% 29.67 in 1.0 mi SE 6.9 mph - 0.02 in Rain Heavy Rain
4:25 PM 51.8 °F 51.8 °F 100% 29.66 in 0.8 mi SE 3.5 mph - 0.13 in Rain Rain
4:32 PM 51.8 °F 51.8 °F 100% 29.67 in 1.2 mi SE 6.9 mph - 0.13 in Rain Light Rain
4:40 PM 51.8 °F 51.8 °F 100% 29.65 in 1.2 mi ESE 4.6 mph - 0.14 in Rain Light Rain
4:53 PM 52.0 °F 51.1 °F 97% 29.64 in 1.2 mi ESE 6.9 mph - 0.17 in Rain Rain
5:09 PM 51.8 °F 51.8 °F 100% 29.65 in 1.2 mi SE 9.2 mph - 0.05 in Rain Rain
5:36 PM 51.8 °F 51.8 °F 100% 29.61 in 2.0 mi East 8.1 mph - 0.13 in Rain Light Rain
5:38 PM 51.8 °F 51.8 °F 100% 29.61 in 1.8 mi East 6.9 mph - 0.13 in Rain Light Rain
5:50 PM 51.8 °F 51.8 °F 100% 29.62 in 2.0 mi ESE 11.5 mph - 0.13 in Rain Light Rain
5:53 PM 52.0 °F 51.1 °F 97% 29.62 in 2.0 mi ESE 13.8 mph - 0.13 in Rain Light Rain
6:22 PM 51.8 °F 51.8 °F 100% 29.63 in 2.0 mi ESE 11.5 mph - 0.00 in Rain Light Rain
6:46 PM 51.8 °F 51.8 °F 100% 29.61 in 3.0 mi SE 9.2 mph - 0.00 in   Overcast
6:53 PM 52.0 °F 52.0 °F 100% 29.60 in 3.0 mi ESE 9.2 mph - 0.00 in   Overcast
7:53 PM 55.0 °F 54.0 °F 96% 29.62 in 6.0 mi South 6.9 mph - N/A   Overcast
8:53 PM 55.9 °F 54.0 °F 93% 29.58 in 10.0 mi SSE 9.2 mph - N/A   Mostly Cloudy
9:05 PM 55.4 °F 55.4 °F 100% 29.58 in 10.0 mi SSE 6.9 mph - N/A   Overcast
9:53 PM 55.9 °F 55.0 °F 97% 29.61 in 10.0 mi South 8.1 mph - N/A   Overcast
10:16 PM 55.4 °F 53.6 °F 94% 29.61 in 10.0 mi South 6.9 mph - N/A   Scattered Clouds
10:53 PM 55.0 °F 53.1 °F 93% 29.61 in 10.0 mi South 6.9 mph - N/A   Clear
11:53 PM 52.0 °F 50.0 °F 93% 29.59 in 10.0 mi SSE 4.6 mph - N/A   Clear